Location: Colorado Springs
(38.8340°N, 104.8210°W)
Time: 20:10:22
(UTC-06:00)

Envisat - Pass Details

Date: 07 October 2017
Orbit: 764 x 766 km, 98.2° (Epoch: 17 October)

Event Time Altitude Azimuth Distance (km) Brightness Sun altitude
Exits shadow 20:58:37 64° 323° (NW) 845 3.2 -29.1°
Drops below altitude 10° 21:02:58 10° 345° (NNW) 2,309 5.8 -29.9°
Sets 21:05:17 0° 346° (NNW) 3,239 6.6 -30.3°
